Elmira, NY

8:39 AM EDT on April 25, 2017 (GMT -0400)
Elmira-Corning Regional

Weather History for KELM - December, 2013

Change the Weather History Date:

Tuesday, December 10, 2013

  Actual Average Record
Temperature  
Mean Temperature 26 °F -  
Max Temperature 32 °F 38 °F 65 °F (1966)
Min Temperature 21 °F 23 °F 3 °F (2000)
Degree Days  
Heating Degree Days 38    
Moisture  
Dew Point 15 °F    
Average Humidity 57    
Maximum Humidity 80    
Minimum Humidity 41    
Precipitation  
Precipitation 0.00 in - - ()
Sea Level Pressure  
Sea Level Pressure 29.97 in    
Wind  
Wind Speed 7 mph (West)    
Max Wind Speed 20 mph    
Max Gust Speed 33 mph    
Visibility 9 miles    
Events Snow    
Averages and records for this station are not official NWS values.
T = Trace of Precipitation, MM = Missing Value Source: NWS Daily Summary

Daily Weather History Graph

Daily Weather History Graph

Search for Another Location

Airport or City:

Trip Planner

Search our weather history database for the weather conditions in past years. The results will help you decide how hot, cold, wet, or windy it might be!

Date:

Astronomy

Dec. 10, 2013 Rise Set
Actual Time 7:25 AM EST 4:35 PM EST
Civil Twilight 6:53 AM EST 5:07 PM EST
Nautical Twilight 6:18 AM EST 5:42 PM EST
Astronomical Twilight 5:44 AM EST 6:16 PM EST
Moon 12:41 PM EST (12/10) 12:35 AM EST (12/10)
Length of Visible Light 10h 13m
Length of Day
9h 10m
First Quarter, 61% of the Moon is Illuminated
Dec 10
First Quarter
Dec 17
Full
Dec 25
Last Quarter
Jan 1
New
Jan 7
First Quarter

Hourly Weather History & Observations

Time (EST) Temp. Windchill Dew Point Humidity Pressure Visibility Wind Dir Wind Speed Gust Speed Precip Events Conditions
12:08 AM 32.0 °F 28.7 °F 21.2 °F 64% 29.97 in 10.0 mi WSW 3.5 mph - N/A   Mostly Cloudy
12:29 AM 30.2 °F 26.7 °F 21.2 °F 69% 29.96 in 10.0 mi WSW 3.5 mph - N/A   Scattered Clouds
12:37 AM 32.0 °F 28.7 °F 21.2 °F 64% 29.96 in 10.0 mi WSW 3.5 mph - N/A   Mostly Cloudy
12:53 AM 32.0 °F 27.5 °F 21.9 °F 66% 29.98 in 10.0 mi WSW 4.6 mph - N/A   Mostly Cloudy
1:08 AM 32.0 °F 24.8 °F 21.2 °F 64% 29.95 in 10.0 mi WSW 8.1 mph - N/A   Overcast
1:53 AM 32.0 °F 25.6 °F 19.9 °F 61% 29.99 in 10.0 mi WSW 6.9 mph - N/A   Scattered Clouds
2:53 AM 32.0 °F 24.2 °F 19.9 °F 61% 29.99 in 10.0 mi West 9.2 mph - N/A   Mostly Cloudy
3:53 AM 32.0 °F 24.8 °F 19.0 °F 59% 30.01 in 10.0 mi WSW 8.1 mph - N/A   Clear
4:53 AM 30.9 °F 25.2 °F 17.1 °F 57% 30.01 in 10.0 mi West 5.8 mph - N/A   Partly Cloudy
5:53 AM 30.9 °F 22.8 °F 15.1 °F 52% 30.01 in 10.0 mi West 9.2 mph - N/A   Mostly Cloudy
6:53 AM 30.0 °F 25.2 °F 16.0 °F 56% 29.98 in 10.0 mi WSW 4.6 mph - N/A   Scattered Clouds
7:53 AM 28.9 °F 22.8 °F 15.1 °F 56% 29.96 in 10.0 mi WNW 5.8 mph - N/A   Mostly Cloudy
8:53 AM 28.9 °F 21.1 °F 15.1 °F 56% 29.96 in 10.0 mi WNW 8.1 mph - N/A   Overcast
9:53 AM 28.9 °F 21.1 °F 16.0 °F 58% 29.96 in 10.0 mi WNW 8.1 mph - N/A   Overcast
10:09 AM 28.4 °F 19.7 °F 17.6 °F 64% 29.92 in 1.0 mi West 9.2 mph - 0.00 in Snow Light Snow
10:37 AM 26.6 °F 19.1 °F 19.4 °F 74% 29.93 in 2.0 mi WSW 6.9 mph - 0.00 in Snow Light Snow
10:45 AM 26.6 °F 19.1 °F 21.2 °F 80% 29.93 in 4.0 mi WSW 6.9 mph - 0.00 in Snow Light Snow
10:53 AM 27.0 °F 18.7 °F 19.9 °F 75% 29.96 in 7.0 mi WSW 8.1 mph - 0.00 in Snow Light Snow
11:53 AM 28.0 °F 17.5 °F 18.0 °F 66% 29.93 in 9.0 mi West 12.7 mph - 0.00 in   Overcast
12:53 PM 30.9 °F 19.8 °F 15.1 °F 52% 29.90 in 10.0 mi WSW 16.1 mph 24.2 mph N/A   Overcast
1:53 PM 30.9 °F 18.7 °F 12.0 °F 46% 29.90 in 10.0 mi West 19.6 mph 33.4 mph N/A   Overcast
2:53 PM 28.9 °F 18.2 °F 12.9 °F 51% 29.91 in 10.0 mi West 13.8 mph 20.7 mph N/A   Mostly Cloudy
3:53 PM 28.0 °F 16.1 °F 9.0 °F 45% 29.93 in 10.0 mi West 16.1 mph 25.3 mph N/A   Mostly Cloudy
4:53 PM 26.1 °F - 12.9 °F 58% 29.95 in 10.0 mi Calm Calm - N/A   Scattered Clouds
5:53 PM 26.1 °F 18.4 °F 7.0 °F 44% 29.94 in 10.0 mi WSW 6.9 mph - N/A   Clear
6:53 PM 21.9 °F 17.2 °F 8.1 °F 55% 29.97 in 10.0 mi West 3.5 mph - N/A   Clear
7:53 PM 25.0 °F 14.8 °F 6.1 °F 45% 29.98 in 10.0 mi West 10.4 mph - N/A   Clear
8:53 PM 26.1 °F 14.0 °F 6.1 °F 43% 29.99 in 10.0 mi West 15.0 mph 23.0 mph N/A   Clear
9:53 PM 27.0 °F 13.5 °F 6.1 °F 41% 30.02 in 10.0 mi West 19.6 mph 27.6 mph N/A   Mostly Cloudy
10:53 PM 26.1 °F 14.0 °F 8.1 °F 47% 30.05 in 10.0 mi West 15.0 mph 21.9 mph N/A   Mostly Cloudy
11:53 PM 25.0 °F 12.6 °F 10.0 °F 53% 30.08 in 10.0 mi WSW 15.0 mph 19.6 mph N/A   Overcast